ROMMA est une association bénévole à but non lucratif. Votre soutien est indispensable : ADHERER à ROMMA ou FAIRE un DON

Chambon - (38, Isère)

Oisans (2460 m)   Longitude: 06° 10' 42" E   Latitude: 45° 01' 32" N Station partenaire n°803
 

Détail journalier du     <<     >>

Température Humidité Vent Dir Rafale Dir. rafale Neige 1 Neige 2
Heure (°C) (%) (km/h) (km/h) (cm) (cm)
01:00 9.7974NE9OSO01
02:00 9.7933NE7OSO01
03:00 9.9881NE4NE02
04:00 10.2823SE6O02
05:00 10.3763SSO6SSO31
06:00 9.2761SO4SO42
07:00 10.2671SE3SE12
08:00 10.1701NE3ENE21
09:00 12.8623NE7NE30
10:00 13.2586NE11NE10
11:00 14.6595NNE11NNE10
12:00 14.7582N11N10
13:00 15.2603O11NO10
14:00 15.4565O14O00
15:00 14.86212O24O01
16:00 14.46914OSO27OSO01
17:00 13.47413OSO28OSO20
18:00 11.5768NE21NE22
19:00 11.26314SE30SSE21
20:00 10.46914NE34NE21
21:00 10.7656NE23NE31
22:00 10.3674N16NE21
23:00 10.8603NE16NE21
minuit 10.6624OSO8OSO21

Graphique du 30-08-2019

 

Serveur OMMA